EW3863 Weather Reports


Display with metric or nautical units.
time (UTC)temp
F
wind
direction
speed
MPH
gust
MPH
rain 1hr
in
rain 24hr
in
rain mn
in
humidity
%
barometer
mb
20260906093026 86 167 0.0 5.0 0.00 0.23 0.00 67 1021.0
20260906091530 86 165 1.0 5.0 0.00 0.23 0.00 66 1021.1
20260906090125 86 199 2.0 6.0 0.00 0.23 0.00 67 1021.1
20260906084522 85 206 1.0 5.0 0.00 0.23 0.00 70 1021.1
20260906083027 84 193 1.0 5.0 0.00 0.23 0.00 71 1021.1
20260906081517 84 207 0.0 4.0 0.00 0.23 0.00 72 1021.1
20260906080024 83 210 1.0 4.0 0.00 0.23 0.00 72 1020.9
20260906074512 82 174 2.0 6.0 0.00 0.23 0.00 72 1020.9
20260906073008 81 186 2.0 7.0 0.00 0.23 0.00 73 1020.7
20260906071505 80 207 3.0 5.0 0.00 0.23 0.00 73 1020.5
20260906070003 79 219 1.0 6.0 0.00 0.23 0.00 74 1020.6
20260906064501 77 200 0.0 4.0 0.00 0.23 0.00 76 1020.5
20260906063102 76 208 0.0 2.0 0.00 0.23 0.00 76 1020.4
20260906061559 75 198 0.0 4.0 0.00 0.23 0.00 77 1020.1
20260906060056 75 184 1.0 3.0 0.00 0.23 0.00 78 1020.0
20260906054555 74 186 0.0 3.0 0.00 0.23 0.00 79 1019.9
20260906053103 74 200 0.0 4.0 0.00 0.23 0.00 80 1019.8
20260906051551 74 189 0.0 4.0 0.00 0.23 0.00 81 1019.7
20260906050053 74 162 0.0 3.0 0.00 0.23 0.00 83 1019.5
20260906044547 74 203 0.0 4.0 0.00 0.23 0.00 84 1019.4
20260906043051 74 194 0.0 2.0 0.00 0.23 0.00 85 1019.3
20260906041544 74 172 0.0 2.0 0.00 0.23 0.00 87 1019.2
20260906040043 74 175 0.0 4.0 0.00 0.23 0.00 87 1019.1
20260906034540 75 185 2.0 4.0 0.00 0.23 0.00 88 1018.8
20260906033047 75 176 1.0 5.0 0.00 0.23 0.00 90 1018.7
20260906031536 75 167 0.0 5.0 0.00 0.23 0.00 91 1018.5
20260906030033 76 214 2.0 6.0 0.00 0.23 0.00 91 1018.4
20260906024531 76 181 1.0 4.0 0.00 0.23 0.00 90 1018.5
20260906023035 76 210 2.0 5.0 0.00 0.23 0.00 90 1018.4
20260906021529 76 204 1.0 5.0 0.00 0.23 0.00 89 1018.4
20260906020027 76 174 2.0 6.0 0.00 0.23 0.00 88 1018.3
20260906014528 76 184 1.0 4.0 0.00 0.23 0.00 87 1018.2
20260906013031 76 229 2.0 6.0 0.00 0.23 0.00 86 1018.2
20260906011522 76 175 2.0 5.0 0.00 0.23 0.00 84 1018.2
20260906010019 77 190 2.0 6.0 0.00 0.23 0.00 83 1018.0
20260906004517 77 207 0.0 3.0 0.00 0.23 0.00 81 1018.1
20260906003016 77 208 0.0 2.0 0.00 0.23 0.00 81 1018.0
20260906001518 77 204 0.0 3.0 0.00 0.23 0.00 80 1018.1
20260906000033 78 184 0.0 1.0 0.00 0.23 0.00 80 1018.1
20260905234511 78 184 0.0 2.0 0.00 0.23 0.00 80 1017.8
20260905233010 78 185 0.0 2.0 0.00 0.23 0.00 79 1017.8
20260905231508 79 168 0.0 2.0 0.00 0.23 0.00 78 1017.8
20260905230006 79 194 0.0 2.0 0.00 0.23 0.00 78 1017.6
20260905224504 79 167 0.0 3.0 0.00 0.23 0.00 78 1017.6
20260905223006 79 189 0.0 1.0 0.00 0.23 0.00 78 1017.4
20260905221501 79 184 0.0 2.0 0.00 0.23 0.00 78 1017.4
20260905220100 79 194 0.0 3.0 0.00 0.23 0.00 78 1017.3
20260905214601 79 84 0.0 2.0 0.00 0.23 0.23 77 1017.2
20260905213055 80 167 0.0 2.0 0.00 0.23 0.23 76 1017.1
20260905211558 79 155 0.0 2.0 0.00 0.23 0.23 76 1017.0
20260905210110 80 109 0.0 2.0 0.00 0.23 0.23 76 1016.9
20260905204558 80 154 0.0 2.0 0.00 0.23 0.23 76 1016.9
20260905203051 80 146 0.0 4.0 0.00 0.23 0.23 76 1016.8
20260905201550 80 322 0.0 4.0 0.00 0.23 0.23 77 1016.7
20260905200049 80 354 0.0 2.0 0.00 0.23 0.23 77 1016.7
20260905194554 81 162 0.0 3.0 0.00 0.23 0.23 76 1016.6
20260905193046 81 174 0.0 4.0 0.00 0.23 0.23 74 1016.5
20260905191547 82 180 0.0 3.0 0.00 0.23 0.23 74 1016.2
20260905190044 82 302 0.0 5.0 0.00 0.23 0.23 73 1016.1
20260905184606 82 250 1.0 4.0 0.00 0.23 0.23 72 1015.9
20260905183048 84 295 0.0 3.0 0.00 0.23 0.23 68 1015.6
20260905181552 85 135 0.0 2.0 0.00 0.23 0.23 64 1015.4
20260905180046 87 316 0.0 0.0 0.00 0.23 0.23 48 1015.1
20260905174542 88 316 0.0 0.0 0.00 0.23 0.23 46 1015.0
20260905173040 90 316 0.0 0.0 0.00 0.23 0.23 43 1014.9
20260905171542 90 316 0.0 0.0 0.00 0.23 0.23 42 1014.8
20260905170040 90 316 0.0 0.0 0.00 0.23 0.23 42 1014.7
20260905164538 91 316 0.0 0.0 0.00 0.23 0.23 41 1014.6
20260905163037 92 316 0.0 2.0 0.00 0.23 0.23 41 1014.5
20260905161536 92 18 0.0 1.0 0.00 0.23 0.23 40 1014.5
20260905160038 93 18 0.0 2.0 0.00 0.23 0.23 40 1014.4
20260905154554 93 18 0.0 1.0 0.08 0.25 0.23 41 1014.3
20260905153034 93 18 0.0 1.0 0.11 0.25 0.23 40 1014.2
20260905151536 94 18 0.0 2.0 0.11 0.25 0.23 39 1014.2
20260905150032 94 38 0.0 1.0 0.11 0.32 0.23 39 1014.3
20260905144534 94 11 0.0 2.0 0.03 0.24 0.15 40 1014.3
20260905143030 95 20 0.0 2.0 0.00 0.21 0.12 40 1014.4
20260905141530 96 290 0.0 2.0 0.00 0.21 0.12 38 1014.5
20260905140029 97 23 0.0 1.0 0.00 0.21 0.12 38 1014.7
20260905134528 97 16 0.0 1.0 0.00 0.21 0.12 39 1014.7
20260905133038 97 12 0.0 1.0 0.00 0.21 0.12 38 1014.9
20260905131525 98 18 0.0 2.0 0.01 0.21 0.12 38 1014.9
20260905130025 98 27 0.0 1.0 0.01 0.21 0.12 39 1015.2
20260905124525 98 27 0.0 3.0 0.01 0.21 0.12 39 1015.4
20260905123021 97 26 0.0 1.0 0.01 0.21 0.12 40 1015.5
20260905121523 96 214 0.0 3.0 0.02 0.20 0.11 42 1015.6
20260905120019 96 155 0.0 1.0 0.03 0.27 0.11 40 1015.7
20260905114519 96 188 0.0 2.0 0.03 0.27 0.11 41 1015.9
20260905113017 96 319 0.0 1.0 0.04 0.27 0.11 40 1016.0
20260905111528 97 18 0.0 3.0 0.03 0.24 0.09 40 1015.9
20260905110031 96 201 0.0 2.0 0.02 0.27 0.08 39 1015.8
20260905104514 95 203 0.0 2.0 0.02 0.27 0.08 43 1016.1
20260905103014 96 202 0.0 4.0 0.02 0.25 0.06 43 1016.2
20260905101512 96 198 0.0 0.0 0.02 0.24 0.06 43 1016.1
20260905100011 93 156 0.0 1.0 0.06 0.28 0.06 44 1016.2
20260905094512 94 221 1.0 3.0 0.06 0.28 0.06 42 1016.2